Location: Temiskaming Shores
(47.4794°N, 79.7121°W)
Time: 18:47:07
(UTC-05:00)

Envisat - Visible Passes

Search period start: 05 November 2024 00:00
Search period end: 15 November 2024 00:00
Orbit: 761 x 763 km, 98.3° (Epoch: 05 November)

Date Brightness Start Highest point End Pass type
(mag) Time Alt. Az. Time Alt. Az. Time Alt. Az.
05 Nov 5.5 03:37:37 10° NNE 03:38:17 14° NNE 03:38:17 14° NNE visible
05 Nov 5.2 05:18:11 10° NNW 05:18:25 11° NNW 05:18:25 11° NNW visible
06 Nov 5.1 04:39:36 10° N 04:40:19 13° N 04:40:19 13° N visible
07 Nov 5.4 04:01:38 10° N 04:02:14 13° N 04:02:14 13° N visible
08 Nov 5.8 03:24:02 10° NNE 03:24:08 11° NNE 03:24:08 11° NNE visible
08 Nov 5.2 05:04:05 10° NNW 05:04:16 11° NNW 05:04:16 11° NNW visible
09 Nov 5.3 04:25:48 10° N 04:26:10 12° N 04:26:10 12° N visible
10 Nov 5.6 03:47:57 10° N 03:48:05 11° N 03:48:05 11° N visible
11 Nov 5.4 04:50:07 10° N 04:50:07 10° N 04:50:07 10° N visible
12 Nov 5.6 04:12:01 10° N 04:12:01 10° N 04:12:01 10° N visible
